Location: Newark
(47.5833°N, 8.1500°E)
Time: 23:48:40
(UTC+00:00)

Tiros 1 despin weight - Pass Details

Date: 06 November 2020
Orbit: 593 x 642 km, 48.2° (Epoch: 29 November)

Event Time Altitude Azimuth Distance (km) Brightness Sun altitude
Rises 23:29:30 0° 277° (W) 2,883 - -58.5°
Reaches altitude 10° 23:31:49 10° 278° (W) 1,969 - -58.5°
Maximum altitude 23:36:21 87° 4° (N) 612 - -58.3°
Drops below altitude 10° 23:40:49 10° 98° (E) 1,939 - -58.2°
Sets 23:43:05 0° 98° (E) 2,835 - -58.1°
